Weather History for Scottsbluff, NE

Change the Weather History Date:

Wednesday, March 28, 2012

  Actual Average Record
Temperature  
Mean Temperature 56 °F 41 °F  
Max Temperature 78 °F 56 °F 79 °F (1963)
Min Temperature 34 °F 27 °F -9 °F (1899)
Degree Days  
Heating Degree Days 9 24  
Month to date heating degree days 480 761  
Since 1 July heating degree days 5129 5673  
Cooling Degree Days 0 0  
Month to date cooling degree days 1 0  
Year to date cooling degree days 1 0  
Growing Degree Days 7 (Base 50)    
Moisture  
Dew Point 24 °F    
Average Humidity 41    
Maximum Humidity 72    
Minimum Humidity 9    
Precipitation  
Precipitation 0.00 in 0.04 in 0.80 in (1977)
Month to date precipitation 0.00 0.87  
Year to date precipitation 0.85 1.88  
Snow  
Snow 0.00 in 0.20 in 3.90 in (1980)
Month to date snowfall 0.0 7.0  
Since 1 July snowfall 20.4 35.4  
Snow Depth 0.00 in    
Sea Level Pressure  
Sea Level Pressure 29.83 in    
Wind  
Wind Speed 8 mph (SE)    
Max Wind Speed 21 mph    
Max Gust Speed 26 mph    
Visibility 10 miles    
Events      
T = Trace of Precipitation, MM = Missing Value Source: NWS Daily Summary

Daily Weather History Graph

Daily Weather History Graph

Search for Another Location

Airport:

Trip Planner

Search our weather history database for the weather conditions in past years. The results will help you decide how hot, cold, wet, or windy it might be!

Date:

Astronomy

Mar. 28, 2012 Rise Set
Actual Time 6:43 AM MDT 7:16 PM MDT
Civil Twilight 6:15 AM MDT 7:44 PM MDT
Nautical Twilight 5:42 AM MDT 8:17 PM MDT
Astronomical Twilight 5:08 AM MDT 8:51 PM MDT
Moon 9:57 AM MDT (3/28) 12:24 AM MDT (3/28)
Length of Visible Light 13h 29m
Length of Day
12h 33m
Waxing Crescent, 31% of the Moon is Illuminated
Mar 28
Waxing Crescent
Mar 30
First Quarter
Apr 6
Full
Apr 13
Last Quarter
Apr 21
New

Hourly Weather History & Observations

Time (MDT) Temp. Windchill Dew Point Humidity Pressure Visibility Wind Dir Wind Speed Gust Speed Precip Events Conditions
12:53 AM 41.0 °F 36.4 °F 18.0 °F 40% 29.96 in 10.0 mi East 6.9 mph - N/A   Clear
1:53 AM 41.0 °F 39.0 °F 17.1 °F 38% 29.94 in 10.0 mi East 3.5 mph - N/A   Clear
2:53 AM 39.9 °F 37.8 °F 17.1 °F 40% 29.93 in 10.0 mi ESE 3.5 mph - N/A   Clear
3:53 AM 37.0 °F 31.6 °F 18.0 °F 46% 29.93 in 10.0 mi ESE 6.9 mph - N/A   Clear
4:53 AM 37.9 °F 33.5 °F 17.1 °F 43% 29.92 in 10.0 mi ESE 5.8 mph - N/A   Clear
5:53 AM 36.0 °F - 18.0 °F 48% 29.94 in 10.0 mi Calm Calm - N/A   Partly Cloudy
6:53 AM 37.0 °F 31.0 °F 19.0 °F 48% 29.95 in 10.0 mi East 8.1 mph - N/A   Clear
7:53 AM 43.0 °F - 23.0 °F 45% 29.95 in 10.0 mi Calm Calm - N/A   Clear
8:53 AM 51.1 °F - 25.0 °F 36% 29.94 in 10.0 mi SE 4.6 mph - N/A   Clear
9:53 AM 60.1 °F - 30.0 °F 32% 29.91 in 10.0 mi SSE 5.8 mph - N/A   Clear
10:53 AM 66.9 °F - 35.1 °F 31% 29.87 in 10.0 mi SE 10.4 mph 19.6 mph N/A   Clear
11:53 AM 73.0 °F - 30.9 °F 21% 29.83 in 10.0 mi SSW 11.5 mph 23.0 mph N/A   Clear
12:53 PM 73.9 °F - 24.1 °F 16% 29.81 in 10.0 mi SSW 12.7 mph 23.0 mph N/A   Clear
1:53 PM 75.0 °F - 25.0 °F 16% 29.78 in 10.0 mi South 18.4 mph 25.3 mph N/A   Partly Cloudy
2:53 PM 77.0 °F - 23.0 °F 13% 29.74 in 10.0 mi South 13.8 mph 21.9 mph N/A   Clear
3:53 PM 78.1 °F - 16.0 °F 10% 29.72 in 10.0 mi South 11.5 mph 18.4 mph N/A   Clear
4:53 PM 75.9 °F - 17.1 °F 11% 29.71 in 10.0 mi South 11.5 mph - N/A   Clear
5:53 PM 77.0 °F - 15.1 °F 10% 29.70 in 10.0 mi South 12.7 mph - N/A   Clear
6:53 PM 72.0 °F - 15.1 °F 11% 29.70 in 10.0 mi South 9.2 mph - N/A   Clear
7:53 PM 62.1 °F - 17.1 °F 18% 29.72 in 10.0 mi SE 6.9 mph - N/A   Clear
8:53 PM 57.9 °F - 28.9 °F 33% 29.73 in 10.0 mi ESE 11.5 mph - N/A   Clear
9:53 PM 55.9 °F - 37.0 °F 49% 29.72 in 10.0 mi ESE 11.5 mph - N/A   Clear
10:53 PM 55.9 °F - 44.1 °F 64% 29.71 in 10.0 mi East 11.5 mph - N/A   Clear
11:53 PM 55.9 °F - 46.9 °F 72% 29.72 in 10.0 mi NE 5.8 mph - N/A   Clear